Location: Unspecified
(0.0000°N, 0.0000°E)
Time: 08:43:39
(UTC+00:00)

Explorer 11/Cluster Stage 4 - Pass Details

Date: 02 October 2023
Orbit: 465 x 1227 km, 28.8° (Epoch: 02 December)

Event Time Altitude Azimuth Distance (km) Brightness Sun altitude
Exits shadow 03:17:36 20° 151° (SSE) 1,975 8.8 -37.9°
Drops below altitude 10° 03:19:24 10° 142° (SE) 2,512 9.6 -37.5°
Sets 03:21:51 0° 135° (SE) 3,327 10.4 -36.8°
